Location: Unspecified
(0.0000°N, 0.0000°E)
Time: 06:25:17
(UTC+00:00)

Transit 2A - Pass Details

Date: 27 May 2019
Orbit: 598 x 960 km, 66.7° (Epoch: 15 September)

Event Time Altitude Azimuth Distance (km) Brightness Sun altitude
Rises 06:24:08 0° 242° (WSW) 3,364 8.6 6.3°
Reaches altitude 10° 06:28:33 10° 275° (W) 2,518 8.2 7.3°
Maximum altitude 06:30:19 11° 293° (WNW) 2,450 8.2 7.7°
Drops below altitude 10° 06:32:07 10° 310° (NW) 2,577 8.5 8.1°
Sets 06:36:51 0° 342° (NNW) 3,579 9.5 9.2°
